Probability
15 14 12 12 11 10 9 10 10 10 11 11 11 11 12 12 11 12 11 7 6 6 5 4 4 3 3 3 2 4 6 6 4 1 0 0 0 0 1 1 0 0 0
15 14 13 13 13 12 10 11 11 12 13 14 13 13 13 13 12 12 10 8 7 8 7 6 5 4 4 4 4 5 6 6 4 1 0 0 0 1 2 2 1 0 0
16 16 15 16 16 14 11 12 13 15 16 17 17 17 16 14 14 13 11 11 10 10 10 8 7 7 6 5 6 6 5 5 3 1 0 0 0 1 2 2 1 0 0
18 19 19 18 17 16 15 15 16 17 18 19 20 19 16 14 14 14 13 12 11 11 10 10 10 9 8 7 6 5 5 5 3 1 0 0 0 0 1 1 1 0 0
19 20 20 18 17 18 19 19 19 20 20 20 19 18 14 12 12 13 12 11 11 11 10 10 12 11 9 6 5 5 6 6 5 2 1 1 0 0 0 0 0 0 0
19 19 18 16 16 18 19 20 21 22 21 20 19 17 14 11 10 9 9 9 11 13 12 12 12 11 8 6 5 5 6 6 6 5 3 2 1 0 0 0 0 0 0
20 20 18 16 15 16 17 18 20 21 20 19 19 17 15 13 11 9 9 10 12 13 13 12 11 9 8 7 5 4 5 6 6 5 3 2 1 0 0 0 0 1 1
23 22 20 18 16 15 14 15 17 19 18 17 17 16 15 13 12 10 10 11 12 12 12 10 9 8 7 7 6 4 3 3 3 3 1 1 0 0 0 0 0 1 1
25 22 20 20 19 17 15 14 15 17 17 15 14 14 14 12 10 9 9 11 12 11 9 8 7 7 6 5 5 3 1 1 1 1 0 0 0 0 0 0 0 1 2
22 20 19 20 22 21 17 14 14 16 16 15 14 14 13 11 8 5 5 9 10 9 7 7 7 6 5 3 3 2 1 0 0 0 0 0 0 0 0 0 0 1 2
21 21 19 20 21 21 17 14 14 15 15 14 13 11 9 8 5 2 2 5 7 7 7 6 6 6 4 2 3 3 2 0 0 0 0 0 0 0 0 0 0 0 1
22 21 20 18 18 17 15 13 13 14 14 12 8 5 4 3 2 0 0 1 3 4 5 6 6 5 3 1 1 2 1 0 0 0 0 0 0 0 0 0 0 0 0
19 19 19 18 16 13 11 11 11 11 11 9 5 1 1 1 0 0 0 0 0 2 3 4 5 4 2 0 0 1 1 0 0 1 1 1 1 1 1 0 0 1 1
14 14 16 16 14 11 8 7 7 8 8 7 4 2 1 1 0 0 0 0 0 1 2 3 2 1 1 0 0 0 1 1 1 2 2 2 2 2 1 0 0 0 0
11 12 14 14 13 10 6 4 3 3 4 4 3 2 2 1 0 0 0 0 0 1 2 2 2 1 1 2 1 0 1 1 2 2 2 2 2 2 1 0 0 0 0
11 12 13 13 12 10 7 4 2 1 1 1 1 1 1 1 0 0 0 0 0 1 1 1 2 3 3 3 2 1 0 1 1 1 1 1 1 1 0 0 0 0 0
11 12 13 12 11 9 7 5 3 1 0 0 0 0 0 0 0 0 0 0 0 0 0 1 2 3 3 3 2 1 0 0 0 0 0 0 0 0 0 0 0 0 0
11 11 11 11 10 8 6 6 5 3 1 1 0 0 0 0 0 0 0 0 0 0 0 1 2 2 2 2 1 0 0 0 0 0 0 0 0 0 0 0 0 0 0
10 10 10 10 9 7 5 4 5 4 2 1 0 0 0 0 0 0 0 0 0 0 0 0 1 1 1 1 0 0 0 0 0 0 0 0 0 0 0 0 0 0 0
6 7 8 8 7 6 5 4 4 3 2 1 0 0 0 0 0 0 0 0 0 0 0 0 0 0 0 0 0 0 0 0 0 0 0 0 0 0 0 0 0 0 0
2 3 4 4 5 6 5 5 4 2 1 0 0 0 0 0 0 0 0 0 0 0 0 0 0 0 0 0 0 0 0 0 0 0 0 0 0 0 0 0 0 0 0
0 1 1 1 2 4 4 4 3 2 1 1 1 0 0 0 0 0 0 0 0 0 0 0 0 0 0 0 0 0 0 0 0 0 0 0 0 0 0 0 0 0 0
0 0 0 0 0 1 2 3 3 3 2 2 2 1 0 0 0 0 0 0 0 0 0 0 0 0 0 0 0 0 0 0 0 0 0 0 0 0 0 0 0 0 0
0 0 0 0 0 0 0 1 3 3 3 3 3 2 1 0 0 0 0 0 0 0 0 0 0 0 0 0 0 0 0 0 0 0 0 0 0 0 0 0 0 0 0
0 0 0 0 0 0 0 1 2 2 1 1 2 3 2 1 0 0 0 0 0 0 0 0 0 0 0 0 0 0 0 0 0 0 0 0 0 0 0 0 0 0 0
0 0 0 0 0 0 0 1 2 1 0 0 1 3 3 2 1 0 0 0 0 0 0 0 0 0 0 0 0 0 0 0 0 0 0 0 0 0 0 0 0 0 0
Wind_Speed
6 4 4 3 3 3 3 3 2 2 2 3 3 3 2 3 3 2 3 2 2 3 2 2 3 3 2 2 2 2 3 3 4 4 2 2 2 3 2 2 3 4 4
5 5 4 3 3 3 3 3 3 3 3 3 3 2 3 3 3 3 3 3 3 3 3 3 3 2 3 3 2 2 2 3 3 4 3 2 3 3 3 3 3 4 3
5 4 3 3 2 3 3 3 3 3 2 2 2 3 3 3 3 3 4 3 4 4 4 4 4 3 4 3 3 3 2 2 2 3 3 2 2 2 1 2 3 3 4
5 4 4 3 3 3 3 3 3 2 2 3 3 3 3 3 3 3 3 3 3 4 4 4 4 4 5 4 3 3 2 2 1 2 2 2 2 1 0 1 2 2 3
4 4 4 4 3 3 3 2 2 3 3 3 2 3 3 3 4 3 3 3 3 4 4 4 4 5 6 5 3 3 3 2 2 2 2 2 2 1 2 2 3 3 3
4 4 3 3 3 3 3 2 2 2 3 2 3 3 3 4 4 4 3 3 4 4 4 4 4 5 5 5 5 5 5 4 4 3 2 3 3 3 2 2 2 2 3
3 3 2 2 2 3 2 2 2 2 2 2 3 3 4 4 4 4 4 3 4 4 4 3 3 3 3 3 4 5 5 6 7 5 4 5 4 4 3 3 3 3 4
2 2 2 2 2 2 2 2 2 2 2 2 2 3 3 3 3 3 4 3 3 3 4 4 4 3 3 3 3 3 4 4 5 4 5 5 5 4 5 4 4 3 3
2 2 2 2 2 2 3 3 2 2 2 2 2 2 2 3 3 3 3 2 2 3 3 3 3 4 5 4 2 3 3 4 4 4 5 5 5 5 3 1 1 1 2
2 3 3 3 3 3 3 3 2 2 2 2 2 2 2 2 3 3 2 1 2 2 3 3 4 4 4 4 3 3 3 4 2 2 2 3 3 3 3 3 3 2 2
3 2 2 3 3 3 3 2 2 1 1 1 1 1 1 2 2 2 2 1 1 2 2 3 3 4 4 4 4 4 5 4 2 2 2 2 2 2 2 2 3 3 3
2 1 2 2 2 2 2 2 2 2 1 1 1 2 2 2 2 2 3 2 2 2 3 3 3 4 4 4 3 4 4 2 1 1 1 2 2 3 3 3 3 3 4
1 1 1 1 1 2 3 2 1 1 2 1 1 1 2 2 2 3 3 3 3 2 2 3 4 3 2 2 3 2 1 1 1 1 3 3 3 3 2 2 2 2 2
1 1 1 1 1 1 1 2 2 2 2 2 2 1 2 2 2 2 2 2 2 2 2 2 2 2 1 1 1 1 1 1 2 2 3 2 2 2 2 2 2 1 1
2 1 1 1 2 1 1 2 2 3 4 4 3 3 2 2 3 3 2 2 2 2 1 1 1 2 2 2 2 2 1 1 1 1 1 1 1 2 2 2 2 1 2
2 2 2 2 2 2 2 1 2 3 3 5 5 4 3 4 4 3 3 3 3 2 1 0 1 1 1 1 1 2 1 1 1 1 1 1 2 2 2 1 1 2 2
2 2 2 2 2 2 2 2 2 2 2 4 5 5 4 4 3 3 3 3 2 1 1 1 1 1 1 1 1 1 1 2 1 1 1 2 2 1 1 1 2 1 1
2 2 2 2 2 2 3 3 3 3 2 2 3 5 5 4 3 3 1 2 1 1 1 1 2 2 1 1 2 2 2 1 1 1 1 1 1 1 1 1 1 1 1
3 2 2 2 2 2 2 2 2 3 3 2 1 2 3 3 2 2 1 1 1 1 2 2 2 2 1 1 1 1 1 1 1 1 1 1 1 1 1 1 1 1 1
2 4 4 2 2 2 2 2 2 2 2 2 2 2 1 1 0 0 1 2 1 2 2 2 2 1 1 1 1 1 1 1 1 1 1 1 1 1 1 1 1 1 1
2 2 3 2 2 2 2 2 3 3 2 2 3 3 3 3 2 2 2 2 2 2 2 2 1 1 1 1 0 0 0 1 0 0 1 1 1 1 1 1 1 0 0
1 2 2 2 2 2 2 2 2 2 3 3 2 2 3 2 2 2 2 2 2 2 2 1 1 1 1 1 1 1 0 0 0 0 1 0 0 0 0 0 0 0 0
1 2 2 1 1 2 2 1 2 2 2 2 2 2 2 2 2 2 2 2 1 1 1 1 1 0 1 1 1 2 1 2 2 1 1 0 0 0 0 0 0 0 0
2 2 2 1 1 1 2 2 2 2 2 2 2 2 2 2 2 2 2 1 1 1 1 1 1 1 0 1 0 0 0 1 1 1 2 1 1 1 0 0 0 0 0
1 2 2 1 1 1 1 1 1 1 2 2 2 2 2 2 2 2 1 1 1 1 1 1 1 1 1 1 1 1 1 1 1 1 0 1 1 1 1 1 1 0 0
1 1 1 1 1 0 1 1 1 1 1 2 2 2 2 2 1 2 2 2 2 1 1 1 1 1 1 1 1 2 1 1 2 2 1 0 0 1 1 1 0 0 0
Wind_Direction
186 188 188 195 198 194 202 221 227 233 233 239 239 227 224 226 220 214 225 225 228 246 248 236 248 251 251 250 239 225 221 207 239 269 257 245 229 240 253 252 256 251 250
187 185 194 196 194 199 218 231 231 231 229 230 234 231 235 236 227 216 227 231 227 239 245 241 249 254 259 253 244 243 238 219 217 259 277 264 247 237 233 244 260 260 251
182 181 193 197 197 208 225 233 230 229 236 235 226 227 236 239 230 224 222 228 232 235 236 237 246 238 249 254 244 248 249 244 217 231 262 261 260 247 254 269 269 273 260
171 174 189 207 204 208 220 226 225 225 231 237 230 228 233 244 238 227 221 227 240 246 243 238 238 231 238 243 244 240 240 243 232 235 256 263 266 265 221 268 288 280 274
171 174 189 210 211 202 206 216 218 223 234 238 244 251 245 244 239 225 220 227 235 252 256 250 246 246 246 242 243 231 225 228 225 228 247 270 274 275 254 250 265 284 279
166 172 185 195 193 195 204 205 214 225 228 227 235 243 255 263 265 247 231 230 230 236 250 262 261 255 254 251 249 239 218 215 216 215 236 237 247 249 254 252 252 273 277
159 165 170 180 193 206 200 187 207 225 227 234 239 242 251 260 265 259 252 242 240 236 234 246 267 269 265 245 251 256 247 238 225 213 217 232 232 224 229 247 240 234 243
153 167 180 181 198 208 195 204 216 212 220 236 247 251 254 261 258 264 269 257 252 246 237 231 236 251 251 238 227 237 248 253 241 227 220 231 232 221 214 223 232 245 263
177 205 206 196 197 207 210 215 216 210 229 238 251 242 245 270 264 268 280 258 255 262 259 251 239 236 250 230 210 225 255 274 267 246 241 246 243 230 207 188 234 234 273
208 224 216 203 202 213 214 216 217 208 228 243 264 256 243 267 274 268 268 222 246 272 281 270 257 245 241 213 206 210 235 256 267 291 286 285 265 248 227 203 204 209 229
202 215 215 210 212 209 203 206 202 203 223 251 263 281 272 276 288 280 275 222 243 262 268 270 265 262 253 236 221 214 228 237 235 232 251 273 283 273 259 234 210 198 208
196 210 229 225 225 204 191 196 185 178 188 235 247 294 309 299 300 296 289 279 274 243 260 268 268 266 258 242 229 240 248 239 208 214 236 251 256 262 261 248 237 229 224
167 221 249 235 225 184 173 182 177 167 176 209 219 261 296 309 316 314 302 294 296 276 277 292 293 277 253 251 253 260 252 214 205 226 240 250 249 251 259 266 271 258 260
185 223 242 217 229 222 204 193 184 189 186 188 199 221 278 302 316 327 324 317 317 314 315 315 314 311 327 323 313 298 263 226 219 235 246 260 273 271 253 239 246 248 261
193 211 220 225 215 212 225 222 209 221 205 195 200 196 212 264 277 280 271 284 289 276 291 347 6 10 4 350 336 317 310 327 286 269 257 270 277 269 262 242 232 226 214
192 213 214 224 215 199 198 262 281 244 227 208 208 205 223 238 272 289 292 291 290 260 148 181 266 277 271 282 287 300 322 322 296 277 254 250 258 265 266 254 236 219 222
206 223 219 222 219 206 202 202 245 291 260 227 222 227 235 250 268 291 301 303 296 140 149 236 251 255 260 265 273 277 282 279 275 267 259 252 253 256 254 250 243 230 236
216 221 214 219 223 219 217 215 206 207 236 266 254 239 241 248 258 279 321 40 18 24 245 250 255 260 258 258 261 267 274 285 290 287 287 281 256 241 242 260 255 227 224
224 225 221 221 222 221 223 214 206 201 205 226 259 274 252 246 251 253 153 147 216 260 266 274 267 262 263 261 262 261 264 273 276 269 278 272 262 243 256 260 254 242 217
241 240 231 220 224 226 219 208 208 209 210 213 224 238 220 145 165 250 198 201 208 234 252 263 271 276 268 264 272 272 283 301 312 308 292 287 286 264 264 263 224 195 227
246 257 251 233 227 222 214 211 209 205 209 217 228 222 184 181 204 210 206 210 215 224 230 240 250 263 275 275 259 264 326 334 321 291 295 296 311 314 286 277 285 253 209
243 246 239 228 227 223 220 215 207 206 208 205 218 211 184 180 193 198 208 220 222 220 214 206 211 229 223 210 198 192 184 209 308 285 273 285 290 286 274 292 313 335 21
238 247 247 244 232 228 221 209 204 207 210 201 199 193 184 194 200 203 217 229 215 209 198 163 159 190 287 251 194 174 181 212 229 217 201 220 273 254 220 336 342 11 14
230 238 233 236 238 223 217 217 212 204 195 192 193 194 191 195 199 202 206 202 181 168 161 148 142 143 100 12 15 45 313 281 269 238 200 181 191 206 180 134 117 133 200
234 238 239 234 236 234 227 214 198 195 194 187 183 187 182 179 184 179 177 168 145 134 126 118 119 122 122 94 67 46 26 23 9 347 305 199 197 194 173 168 185 184 145
249 253 242 220 203 201 188 210 215 201 196 196 185 174 171 170 167 161 154 139 132 117 95 92 101 92 72 52 55 63 63 38 16 4 353 314 170 165 156 154 173 146 132